Date String (YYYY-MM-DD hh:mm:ss) UTC,Instrument flags,Ambient pressure (hPa),Sample flow (lpm),Bypass flow (lpm),Sample temperature (°C),Ambient temperature (°C),ASC tube jacket temperature (°C),LED temperature (°C),Box temperature (°C),Sample RH (%),Span deviation,Mass concentration (μg/m³),Mass concentration (μg/m³),Mass concentration (μg/m³)
DateTimeUTC,F1_M11,P_M11,Q1_M11,Q2_M11,T1_M11,T2_M11,T3_M11,T4_M11,T5_M11,U1_M11,ZSPAN_M11,X0_M11,X2_M11,X1_M11
2023-02-05 10:00:00,,0825.2,4.97,0.00,22.3,21.0,00.0,31.1,24.1,11.5,0000.0,0010.99,0006.62,0005.97
2023-02-05 10:01:00,,0825.2,5.04,0.00,22.3,21.0,00.0,31.1,24.1,11.7,0000.0,0011.19,0006.92,0006.30
2023-02-05 10:02:00,,0825.2,4.96,0.00,22.3,21.0,00.0,31.1,24.1,11.8,0000.0,0011.57,0007.26,0006.64
2023-02-05 10:03:00,,0825.2,5.05,0.00,22.3,21.0,00.0,31.1,24.1,11.8,0000.0,0012.01,0007.59,0006.96
2023-02-05 10:04:00,,0825.2,4.96,0.00,22.3,21.1,00.0,31.1,24.1,11.8,0000.0,0012.30,0007.84,0007.23
2023-02-05 10:05:00,,0825.3,5.00,0.00,22.3,21.1,00.0,31.1,24.1,11.8,0000.0,0012.43,0008.02,0007.41
2023-02-05 10:06:00,,0825.3,4.99,0.00,22.3,21.1,00.0,31.1,24.1,11.9,0000.0,0012.36,0008.11,0007.54
2023-02-05 10:07:00,,0825.2,4.99,0.00,22.3,21.1,00.0,31.1,24.1,11.9,0000.0,0012.71,0008.23,0007.66
2023-02-05 10:08:00,,0825.2,5.00,0.00,22.3,21.1,00.0,31.1,24.1,11.9,0000.0,0013.45,0008.36,0007.76
2023-02-05 10:09:00,,0825.0,5.00,0.00,22.3,21.1,00.0,31.1,24.1,11.9,0000.0,0012.94,0008.39,0007.82
2023-02-05 10:10:00,,0825.0,4.98,0.00,22.3,21.1,00.0,31.1,24.2,11.8,0000.0,0012.91,0008.43,0007.89
2023-02-05 10:11:00,,0825.1,5.02,0.00,22.3,21.1,00.0,31.2,24.2,11.9,0000.0,0012.95,0008.48,0007.94
2023-02-05 10:12:00,,0825.1,4.97,0.00,22.3,21.1,00.0,31.2,24.2,11.9,0000.0,0013.15,0008.53,0007.97
2023-02-05 10:13:00,,0825.2,5.03,0.00,22.3,21.1,00.0,31.2,24.2,11.9,0000.0,0013.51,0008.57,0008.00
2023-02-05 10:14:00,,0825.2,4.98,0.00,22.3,21.1,00.0,31.2,24.2,11.9,0000.0,0013.51,0008.63,0008.06
2023-02-05 10:15:00,,0825.2,5.00,0.00,22.3,21.1,00.0,31.2,24.2,11.6,0000.0,0013.57,0008.68,0008.09
2023-02-05 10:16:00,,0825.2,5.00,0.00,22.3,21.1,00.0,31.2,24.1,11.1,0000.0,0013.38,0008.62,0008.04
2023-02-05 10:17:00,,0825.2,5.00,0.00,22.3,21.1,00.0,31.2,24.2,11.0,0000.0,0013.28,0008.54,0007.95
2023-02-05 10:18:00,,0825.1,5.00,0.00,22.3,21.1,00.0,31.2,24.2,11.6,0000.0,0013.06,0008.52,0007.93
2023-02-05 10:19:00,,0825.1,4.97,0.00,22.4,21.1,00.0,31.2,24.2,11.7,0000.0,0012.33,0008.46,0007.91
2023-02-05 10:20:00,,0825.1,5.03,0.00,22.3,21.1,00.0,31.2,24.2,11.7,0000.0,0012.17,0008.45,0007.89
2023-02-05 10:21:00,,0825.1,4.97,0.00,22.3,21.1,00.0,31.2,24.2,11.7,0000.0,0012.13,0008.43,0007.87
2023-02-05 10:22:00,,0825.2,5.04,0.00,22.3,21.1,00.0,31.2,24.2,11.7,0000.0,0012.10,0008.41,0007.85
2023-02-05 10:23:00,,0825.2,4.96,0.00,22.3,21.0,00.0,31.2,24.1,11.8,0000.0,0012.10,0008.37,0007.81
2023-02-05 10:24:00,,0825.2,5.03,0.00,22.3,21.0,00.0,31.2,24.1,11.8,0000.0,0011.84,0008.34,0007.78
2023-02-05 10:25:00,,0825.1,4.96,0.00,22.3,21.0,00.0,31.2,24.1,11.7,0000.0,0012.57,0008.29,0007.73
2023-02-05 10:26:00,,0825.0,5.04,0.00,22.3,21.0,00.0,31.2,24.1,11.6,0000.0,0013.22,0008.24,0007.69
2023-02-05 10:27:00,,0824.9,4.97,0.00,22.3,21.0,00.0,31.2,24.1,11.7,0000.0,0013.31,0008.30,0007.74
2023-02-05 10:28:00,,0824.9,5.06,0.00,22.3,20.9,00.0,31.2,24.1,11.7,0000.0,0013.92,0008.44,0007.84
2023-02-05 10:29:00,,0825.0,4.96,0.00,22.3,20.9,00.0,31.2,24.1,11.8,0000.0,0014.47,0008.47,0007.88
2023-02-05 10:30:00,,0825.2,5.05,0.00,22.3,21.1,00.0,31.1,24.2,11.9,0000.0,0014.52,0008.46,0007.88
2023-02-05 10:31:00,,0825.2,4.98,0.00,22.4,21.8,00.0,31.1,24.4,11.8,0000.0,0014.53,0008.46,0007.89
2023-02-05 10:32:00,,0825.3,4.99,0.00,22.5,22.7,00.0,31.1,24.6,11.7,0000.0,0014.57,0008.45,0007.89
2023-02-05 10:33:00,,0825.2,5.04,0.00,22.6,22.8,00.0,31.2,24.7,11.7,0000.0,0014.62,0008.47,0007.88
2023-02-05 10:34:00,,0825.2,4.95,0.00,22.6,22.4,00.0,31.2,24.6,11.7,0000.0,0014.46,0008.45,0007.87
2023-02-05 10:35:00,,0825.2,5.05,0.00,22.6,22.1,00.0,31.3,24.5,11.6,0000.0,0014.44,0008.44,0007.87
2023-02-05 10:36:00,,0825.2,4.97,0.00,22.6,21.9,00.0,31.3,24.5,11.5,0000.0,0014.38,0008.42,0007.85
2023-02-05 10:37:00,,0825.2,5.00,0.00,22.6,21.8,00.0,31.3,24.5,11.4,0000.0,0013.93,0008.39,0007.83
2023-02-05 10:38:00,,0825.2,5.01,0.00,22.6,21.7,00.0,31.3,24.5,11.4,0000.0,0014.13,0008.32,0007.79
2023-02-05 10:39:00,,0825.1,4.96,0.00,22.6,21.6,00.0,31.4,24.5,11.5,0000.0,0014.30,0008.27,0007.77
2023-02-05 10:40:00,,0825.1,5.03,0.00,22.6,21.5,00.0,31.4,24.5,11.5,0000.0,0013.75,0008.25,0007.76
2023-02-05 10:41:00,,0825.1,4.96,0.00,22.6,21.5,00.0,31.4,24.5,11.6,0000.0,0014.03,0008.20,0007.70
2023-02-05 10:42:00,,0825.1,5.04,0.00,22.6,21.4,00.0,31.4,24.5,11.6,0000.0,0014.01,0008.15,0007.65
2023-02-05 10:43:00,,0825.1,4.96,0.00,22.6,21.3,00.0,31.4,24.5,11.6,0000.0,0014.05,0008.11,0007.60
2023-02-05 10:44:00,,0825.1,5.05,0.00,22.6,21.3,00.0,31.4,24.5,11.5,0000.0,0013.94,0008.02,0007.53
2023-02-05 10:45:00,,0825.1,4.96,0.00,22.6,21.3,00.0,31.4,24.5,11.5,0000.0,0013.86,0007.92,0007.45
2023-02-05 10:46:00,,0825.1,5.05,0.00,22.6,21.3,00.0,31.4,24.4,11.5,0000.0,0013.90,0007.86,0007.37
2023-02-05 10:47:00,,0825.1,4.96,0.00,22.6,21.2,00.0,31.4,24.4,11.5,0000.0,0013.70,0007.81,0007.31
2023-02-05 10:48:00,,0825.0,5.04,0.00,22.6,21.2,00.0,31.4,24.4,11.5,0000.0,0013.77,0007.77,0007.27
2023-02-05 10:49:00,,0824.9,4.96,0.00,22.6,21.2,00.0,31.4,24.4,11.4,0000.0,0013.64,0007.72,0007.23
2023-02-05 10:50:00,,0824.9,5.04,0.00,22.6,21.2,00.0,31.4,24.4,11.5,0000.0,0013.11,0007.69,0007.18
2023-02-05 10:51:00,,0825.1,4.96,0.00,22.6,21.2,00.0,31.4,24.4,11.6,0000.0,0013.09,0007.62,0007.13
2023-02-05 10:52:00,,0825.2,5.03,0.00,22.6,21.2,00.0,31.4,24.4,11.5,0000.0,0012.72,0007.59,0007.10
2023-02-05 10:53:00,,0825.2,4.97,0.00,22.5,21.1,00.0,31.4,24.3,11.5,0000.0,0012.70,0007.56,0007.07
2023-02-05 10:54:00,,0825.3,5.04,0.00,22.5,21.0,00.0,31.4,24.3,11.6,0000.0,0012.62,0007.50,0007.05
2023-02-05 10:55:00,,0825.2,4.96,0.00,22.5,21.1,00.0,31.4,24.3,11.7,0000.0,0012.95,0007.48,0007.04
2023-02-05 10:56:00,,0825.2,5.04,0.00,22.5,21.1,00.0,31.4,24.3,11.6,0000.0,0012.92,0007.47,0007.05
2023-02-05 10:57:00,,0825.2,4.97,0.00,22.5,21.1,00.0,31.4,24.3,11.6,0000.0,0012.80,0007.45,0007.06
2023-02-05 10:58:00,,0825.2,5.04,0.00,22.5,21.1,00.0,31.4,24.3,11.5,0000.0,0012.33,0007.42,0007.04
2023-02-05 10:59:00,,0825.1,4.97,0.00,22.5,21.1,00.0,31.4,24.3,11.4,0000.0,0011.74,0007.40,0007.03
